Temp: 17.3°C   Baro: 1015.4mb
  Wind: 11.0mph   Dir: W (276°)
  Rain: 9.6mm (0.0mm/hr)
  Solar: 197W/m2  Hum: 67%
 
Bath Spa Weather Historical Data
Daily Summary for July 1, 2019 Units:  Metric    English   Both
Next Day »
Daily Weekly Monthly Yearly Custom
  High: Low: Average:
Temperature: 19.7 °C 12.8 °C 15.9 °C
Dew Point: 13.5 °C 8.4 °C 11.1 °C
Humidity: 87% 62% 74%
Wind Speed: 27.4km/h 0.0km/h 8.1km/h
Wind Gust: 32.2km/h - -
Wind direction- - WNW
Pressure: 1024.3 hPa 1017.8 hPa -
Precipitation: 0.0 mm    
Historical Graphs
 
 
Tabular Data for July 1, 2019
Time Temperature Dew Point Pressure Wind direction Wind Speed Wind Gust Humidity Rainfall Rate (Hourly) solar
00:04 13.9 °C 11.6 °C 1018.5 hPa West 4.7 km/h 6.4 km/h 86% 0.0 mm 0.00 W/m2
00:09 13.9 °C 11.6 °C 1018.5 hPa West 4.7 km/h 4.8 km/h 86% 0.0 mm 0.00 W/m2
00:14 13.8 °C 11.5 °C 1018.5 hPa West 4.7 km/h 4.8 km/h 86% 0.0 mm 0.00 W/m2
00:19 13.7 °C 11.4 °C 1018.5 hPa Calm   6.4 km/h 86% 0.0 mm 0.00 W/m2
00:24 13.7 °C 11.6 °C 1018.5 hPa West 3.2 km/h 4.8 km/h 87% 0.0 mm 0.00 W/m2
00:29 13.7 °C 11.6 °C 1018.5 hPa West 1.4 km/h 6.4 km/h 87% 0.0 mm 0.00 W/m2
00:34 13.7 °C 11.6 °C 1018.5 hPa Calm   3.2 km/h 87% 0.0 mm 0.00 W/m2
00:39 13.8 °C 11.7 °C 1018.2 hPa West 1.4 km/h 3.2 km/h 87% 0.0 mm 0.00 W/m2
00:44 13.7 °C 11.6 °C 1018.2 hPa Calm   4.8 km/h 87% 0.0 mm 0.00 W/m2
00:49 13.8 °C 11.7 °C 1018.2 hPa West 1.4 km/h 4.8 km/h 87% 0.0 mm 0.00 W/m2
00:54 13.8 °C 11.7 °C 1018.2 hPa West 6.4 km/h 6.4 km/h 87% 0.0 mm 0.00 W/m2
00:59 13.8 °C 11.7 °C 1018.2 hPa West 4.7 km/h 4.8 km/h 87% 0.0 mm 0.00 W/m2
01:04 13.8 °C 11.7 °C 1018.2 hPa West 4.7 km/h 6.4 km/h 87% 0.0 mm 0.00 W/m2
01:09 13.8 °C 11.7 °C 1018.2 hPa West 3.2 km/h 4.8 km/h 87% 0.0 mm 0.00 W/m2
01:14 13.8 °C 11.7 °C 1018.2 hPa West 6.4 km/h 6.4 km/h 87% 0.0 mm 0.00 W/m2
01:19 13.8 °C 11.7 °C 1018.2 hPa West 1.4 km/h 6.4 km/h 87% 0.0 mm 0.00 W/m2
01:24 13.8 °C 11.7 °C 1018.2 hPa West 3.2 km/h 4.8 km/h 87% 0.0 mm 0.00 W/m2
01:29 13.8 °C 11.5 °C 1018.2 hPa West 6.4 km/h 8.0 km/h 86% 0.0 mm 0.00 W/m2
01:34 13.9 °C 11.6 °C 1018.2 hPa West 1.4 km/h 4.8 km/h 86% 0.0 mm 0.00 W/m2
01:39 13.9 °C 11.6 °C 1018.2 hPa West 4.7 km/h 4.8 km/h 86% 0.0 mm 0.00 W/m2
01:44 13.9 °C 11.6 °C 1017.8 hPa West 9.7 km/h 9.7 km/h 86% 0.0 mm 0.00 W/m2
01:49 14.0 °C 11.7 °C 1017.8 hPa West 14.5 km/h 14.5 km/h 86% 0.0 mm 0.00 W/m2
01:54 14.1 °C 11.6 °C 1017.8 hPa WNW 3.2 km/h 11.3 km/h 85% 0.0 mm 0.00 W/m2
01:59 14.2 °C 11.7 °C 1017.8 hPa West 4.7 km/h 14.5 km/h 85% 0.0 mm 0.00 W/m2
02:04 14.3 °C 11.8 °C 1017.8 hPa WNW 17.7 km/h 17.7 km/h 85% 0.0 mm 0.00 W/m2
02:09 14.4 °C 12.1 °C 1017.8 hPa WSW 7.9 km/h 11.3 km/h 86% 0.0 mm 0.00 W/m2
02:14 14.5 °C 12.0 °C 1017.8 hPa West 17.7 km/h 17.7 km/h 85% 0.0 mm 0.00 W/m2
02:19 14.5 °C 12.0 °C 1017.8 hPa West 6.4 km/h 16.1 km/h 85% 0.0 mm 0.00 W/m2
02:24 14.6 °C 12.1 °C 1017.8 hPa West 9.7 km/h 16.1 km/h 85% 0.0 mm 0.00 W/m2
02:29 14.5 °C 12.0 °C 1017.8 hPa West 9.7 km/h 17.7 km/h 85% 0.0 mm 0.00 W/m2
02:34 14.5 °C 12.0 °C 1017.8 hPa NW 11.1 km/h 24.1 km/h 85% 0.0 mm 0.00 W/m2
02:39 14.6 °C 11.9 °C 1017.8 hPa West 19.5 km/h 22.5 km/h 84% 0.0 mm 0.00 W/m2
02:44 14.5 °C 11.8 °C 1017.8 hPa West 13.0 km/h 17.7 km/h 84% 0.0 mm 0.00 W/m2
02:49 14.5 °C 11.8 °C 1017.8 hPa WNW 22.7 km/h 22.5 km/h 84% 0.0 mm 0.00 W/m2
02:54 14.4 °C 11.7 °C 1017.8 hPa WNW 14.3 km/h 22.5 km/h 84% 0.0 mm 0.00 W/m2
02:59 14.3 °C 11.6 °C 1017.8 hPa WNW 7.9 km/h 19.3 km/h 84% 0.0 mm 0.00 W/m2
03:04 14.3 °C 11.6 °C 1017.8 hPa West 9.7 km/h 17.7 km/h 84% 0.0 mm 0.00 W/m2
03:09 14.3 °C 11.6 °C 1017.8 hPa West 11.1 km/h 17.7 km/h 84% 0.0 mm 0.00 W/m2
03:14 14.2 °C 11.5 °C 1018.2 hPa WNW 4.7 km/h 14.5 km/h 84% 0.0 mm 0.00 W/m2
03:19 14.1 °C 11.4 °C 1017.8 hPa WNW 14.3 km/h 16.1 km/h 84% 0.0 mm 0.00 W/m2
03:24 14.0 °C 11.3 °C 1018.2 hPa West 3.2 km/h 17.7 km/h 84% 0.0 mm 0.00 W/m2
03:29 14.0 °C 11.3 °C 1018.2 hPa West 13.0 km/h 17.7 km/h 84% 0.0 mm 0.00 W/m2
03:34 14.0 °C 11.2 °C 1018.2 hPa WNW 11.1 km/h 17.7 km/h 83% 0.0 mm 0.00 W/m2
03:39 13.9 °C 11.1 °C 1018.2 hPa West 7.9 km/h 20.9 km/h 83% 0.0 mm 0.00 W/m2
03:44 13.9 °C 11.1 °C 1018.2 hPa West 11.1 km/h 14.5 km/h 83% 0.0 mm 0.00 W/m2
03:49 13.9 °C 11.1 °C 1018.2 hPa West 20.9 km/h 20.9 km/h 83% 0.0 mm 0.00 W/m2
03:54 13.9 °C 11.1 °C 1018.2 hPa WNW 7.9 km/h 19.3 km/h 83% 0.0 mm 0.00 W/m2
03:59 13.9 °C 11.1 °C 1018.2 hPa West 11.1 km/h 14.5 km/h 83% 0.0 mm 0.00 W/m2
04:04 13.9 °C 11.1 °C 1018.2 hPa WNW 13.0 km/h 12.9 km/h 83% 0.0 mm 0.00 W/m2
04:09 13.8 °C 11.0 °C 1018.2 hPa West 3.2 km/h 19.3 km/h 83% 0.0 mm 0.00 W/m2
04:14 13.8 °C 11.0 °C 1018.2 hPa West 11.1 km/h 12.9 km/h 83% 0.0 mm 0.00 W/m2
04:19 13.8 °C 11.0 °C 1018.2 hPa WNW 6.4 km/h 11.3 km/h 83% 0.0 mm 0.00 W/m2
04:24 13.7 °C 10.7 °C 1018.2 hPa West 9.7 km/h 16.1 km/h 82% 0.0 mm 0.00 W/m2
04:29 13.7 °C 10.9 °C 1018.2 hPa WNW 11.1 km/h 12.9 km/h 83% 0.0 mm 0.00 W/m2
04:34 13.6 °C 10.8 °C 1018.2 hPa West 4.7 km/h 19.3 km/h 83% 0.0 mm 0.00 W/m2
04:39 13.6 °C 10.8 °C 1018.2 hPa WSW 11.1 km/h 12.9 km/h 83% 0.0 mm 0.00 W/m2
04:44 13.5 °C 10.7 °C 1018.2 hPa WNW 7.9 km/h 11.3 km/h 83% 0.0 mm 0.00 W/m2
04:49 13.4 °C 10.8 °C 1018.2 hPa WNW 16.1 km/h 16.1 km/h 84% 0.0 mm 0.00 W/m2
04:54 13.4 °C 10.8 °C 1018.2 hPa West 3.2 km/h 11.3 km/h 84% 0.0 mm 0.00 W/m2
04:59 13.3 °C 10.8 °C 1018.2 hPa WNW 7.9 km/h 14.5 km/h 85% 0.0 mm 0.00 W/m2
05:04 13.3 °C 10.8 °C 1018.2 hPa WNW 3.2 km/h 11.3 km/h 85% 0.0 mm 5.00 W/m2
05:09 13.2 °C 10.7 °C 1018.2 hPa NW 6.4 km/h 9.7 km/h 85% 0.0 mm 9.00 W/m2
05:14 13.1 °C 10.8 °C 1018.5 hPa West 4.7 km/h 8.0 km/h 86% 0.0 mm 12.00 W/m2
05:19 13.0 °C 10.7 °C 1018.5 hPa WNW 11.3 km/h 11.3 km/h 86% 0.0 mm 18.00 W/m2
05:24 13.0 °C 10.7 °C 1018.5 hPa WNW 11.1 km/h 11.3 km/h 86% 0.0 mm 18.00 W/m2
05:29 13.0 °C 10.7 °C 1018.5 hPa West 3.2 km/h 11.3 km/h 86% 0.0 mm 19.00 W/m2
05:34 13.0 °C 10.7 °C 1018.5 hPa West 3.2 km/h 8.0 km/h 86% 0.0 mm 18.00 W/m2
05:39 12.9 °C 10.8 °C 1018.8 hPa WNW 4.7 km/h 8.0 km/h 87% 0.0 mm 19.00 W/m2
05:44 12.9 °C 10.8 °C 1018.8 hPa WNW 3.2 km/h 8.0 km/h 87% 0.0 mm 21.00 W/m2
05:49 12.8 °C 10.7 °C 1018.8 hPa WNW 6.4 km/h 11.3 km/h 87% 0.0 mm 21.00 W/m2
05:54 12.8 °C 10.7 °C 1018.8 hPa WNW 3.2 km/h 9.7 km/h 87% 0.0 mm 23.00 W/m2
05:59 12.8 °C 10.7 °C 1018.8 hPa West 6.4 km/h 11.3 km/h 87% 0.0 mm 25.00 W/m2
06:04 12.8 °C 10.7 °C 1018.8 hPa WNW 7.9 km/h 8.0 km/h 87% 0.0 mm 25.00 W/m2
06:09 12.8 °C 10.7 °C 1018.8 hPa NNW 9.7 km/h 12.9 km/h 87% 0.0 mm 26.00 W/m2
06:14 12.8 °C 10.7 °C 1018.8 hPa WNW 3.2 km/h 11.3 km/h 87% 0.0 mm 26.00 W/m2
06:19 12.8 °C 10.7 °C 1018.8 hPa Calm   6.4 km/h 87% 0.0 mm 30.00 W/m2
06:24 12.8 °C 10.7 °C 1018.8 hPa WNW 6.4 km/h 6.4 km/h 87% 0.0 mm 33.00 W/m2
06:29 13.0 °C 10.7 °C 1018.8 hPa WNW 3.2 km/h 12.9 km/h 86% 0.0 mm 47.00 W/m2
06:34 13.1 °C 10.8 °C 1019.2 hPa WNW 6.4 km/h 8.0 km/h 86% 0.0 mm 47.00 W/m2
06:39 13.2 °C 10.7 °C 1019.2 hPa NW 3.2 km/h 6.4 km/h 85% 0.0 mm 60.00 W/m2
06:44 13.3 °C 10.8 °C 1019.2 hPa West 4.7 km/h 9.7 km/h 85% 0.0 mm 84.00 W/m2
06:49 13.3 °C 10.7 °C 1019.2 hPa WNW 9.7 km/h 11.3 km/h 84% 0.0 mm 54.00 W/m2
06:54 13.3 °C 10.5 °C 1019.5 hPa WNW 4.7 km/h 11.3 km/h 83% 0.0 mm 49.00 W/m2
06:59 13.4 °C 10.6 °C 1019.5 hPa West 12.9 km/h 12.9 km/h 83% 0.0 mm 58.00 W/m2
07:04 13.4 °C 10.4 °C 1019.5 hPa WNW 9.7 km/h 11.3 km/h 82% 0.0 mm 74.00 W/m2
07:09 13.4 °C 10.2 °C 1019.5 hPa West 3.2 km/h 11.3 km/h 81% 0.0 mm 91.00 W/m2
07:14 13.5 °C 10.1 °C 1019.5 hPa West 3.2 km/h 8.0 km/h 80% 0.0 mm 216.00 W/m2
07:19 13.7 °C 10.3 °C 1019.5 hPa West 6.4 km/h 11.3 km/h 80% 0.0 mm 202.00 W/m2
07:24 13.9 °C 10.1 °C 1019.5 hPa WSW 4.7 km/h 9.7 km/h 78% 0.0 mm 206.00 W/m2
07:29 14.2 °C 10.2 °C 1019.5 hPa WNW 6.4 km/h 14.5 km/h 77% 0.0 mm 225.00 W/m2
07:34 14.2 °C 9.8 °C 1019.5 hPa West 16.3 km/h 20.9 km/h 75% 0.0 mm 272.00 W/m2
07:39 14.4 °C 9.6 °C 1019.5 hPa West 9.7 km/h 17.7 km/h 73% 0.0 mm 204.00 W/m2
07:44 14.4 °C 9.6 °C 1019.5 hPa WNW 14.3 km/h 14.5 km/h 73% 0.0 mm 111.00 W/m2
07:49 14.3 °C 9.5 °C 1019.5 hPa West 17.7 km/h 19.3 km/h 73% 0.0 mm 113.00 W/m2
07:54 14.3 °C 9.3 °C 1019.9 hPa NW 14.3 km/h 17.7 km/h 72% 0.0 mm 167.00 W/m2
07:59 14.4 °C 9.4 °C 1019.9 hPa WNW 7.9 km/h 16.1 km/h 72% 0.0 mm 83.00 W/m2
08:04 14.5 °C 9.3 °C 1019.9 hPa WNW 16.3 km/h 22.5 km/h 71% 0.0 mm 369.00 W/m2
08:09 14.5 °C 9.1 °C 1019.9 hPa WNW 9.7 km/h 17.7 km/h 70% 0.0 mm 151.00 W/m2
08:14 14.5 °C 8.9 °C 1020.2 hPa West 20.9 km/h 20.9 km/h 69% 0.0 mm 153.00 W/m2
08:19 14.4 °C 8.6 °C 1020.2 hPa WNW 14.3 km/h 19.3 km/h 68% 0.0 mm 132.00 W/m2
08:24 14.4 °C 8.6 °C 1020.2 hPa NW 13.0 km/h 20.9 km/h 68% 0.0 mm 171.00 W/m2
08:29 14.4 °C 8.6 °C 1020.5 hPa West 11.1 km/h 22.5 km/h 68% 0.0 mm 188.00 W/m2
08:34 14.5 °C 8.4 °C 1020.5 hPa NW 13.0 km/h 14.5 km/h 67% 0.0 mm 218.00 W/m2
08:39 14.7 °C 8.6 °C 1020.5 hPa NW 19.5 km/h 22.5 km/h 67% 0.0 mm 195.00 W/m2
08:44 14.7 °C 8.4 °C 1020.5 hPa WNW 9.7 km/h 19.3 km/h 66% 0.0 mm 193.00 W/m2
08:49 14.8 °C 8.7 °C 1020.5 hPa WNW 7.9 km/h 16.1 km/h 67% 0.0 mm 202.00 W/m2
08:54 14.8 °C 8.7 °C 1020.5 hPa WNW 14.3 km/h 22.5 km/h 67% 0.0 mm 253.00 W/m2
08:59 14.9 °C 8.4 °C 1020.5 hPa West 4.7 km/h 24.1 km/h 65% 0.0 mm 476.00 W/m2
09:04 14.9 °C 8.4 °C 1020.5 hPa WNW 11.1 km/h 20.9 km/h 65% 0.0 mm 199.00 W/m2
09:09 14.9 °C 8.4 °C 1020.5 hPa WNW 6.4 km/h 20.9 km/h 65% 0.0 mm 200.00 W/m2
09:14 14.9 °C 8.4 °C 1020.5 hPa WNW 11.1 km/h 19.3 km/h 65% 0.0 mm 207.00 W/m2
09:19 14.9 °C 8.6 °C 1020.5 hPa NNW 11.1 km/h 20.9 km/h 66% 0.0 mm 216.00 W/m2
09:24 15.0 °C 8.9 °C 1020.9 hPa NW 3.2 km/h 12.9 km/h 67% 0.0 mm 183.00 W/m2
09:29 14.9 °C 8.6 °C 1020.9 hPa NW 4.7 km/h 29.0 km/h 66% 0.0 mm 250.00 W/m2
09:34 15.0 °C 8.5 °C 1020.9 hPa NW 9.7 km/h 16.1 km/h 65% 0.0 mm 272.00 W/m2
09:39 15.0 °C 8.5 °C 1020.9 hPa WNW 6.4 km/h 16.1 km/h 65% 0.0 mm 281.00 W/m2
09:44 15.3 °C 8.8 °C 1020.9 hPa WNW 3.2 km/h 14.5 km/h 65% 0.0 mm 294.00 W/m2
09:49 15.4 °C 9.3 °C 1020.9 hPa WNW 6.4 km/h 20.9 km/h 67% 0.0 mm 338.00 W/m2
09:54 15.7 °C 9.8 °C 1020.5 hPa West 13.0 km/h 25.7 km/h 68% 0.0 mm 833.00 W/m2
09:59 16.0 °C 9.9 °C 1020.5 hPa West 13.0 km/h 22.5 km/h 67% 0.0 mm 671.00 W/m2
10:04 15.9 °C 9.8 °C 1020.5 hPa WNW 17.7 km/h 32.2 km/h 67% 0.0 mm 763.00 W/m2
10:09 16.2 °C 10.1 °C 1020.5 hPa NNW 9.7 km/h 20.9 km/h 67% 0.0 mm 287.00 W/m2
10:14 15.8 °C 9.9 °C 1020.5 hPa WNW 9.7 km/h 20.9 km/h 68% 0.0 mm 223.00 W/m2
10:19 15.5 °C 9.6 °C 1020.9 hPa NW 11.1 km/h 22.5 km/h 68% 0.0 mm 279.00 W/m2
10:24 15.5 °C 9.6 °C 1020.9 hPa NW 17.7 km/h 20.9 km/h 68% 0.0 mm 394.00 W/m2
10:29 15.8 °C 9.9 °C 1020.9 hPa West 7.9 km/h 14.5 km/h 68% 0.0 mm 341.00 W/m2
10:34 15.7 °C 9.8 °C 1020.9 hPa NW 11.1 km/h 24.1 km/h 68% 0.0 mm 376.00 W/m2
10:39 16.3 °C 10.4 °C 1020.9 hPa WNW 3.2 km/h 11.3 km/h 68% 0.0 mm 844.00 W/m2
10:44 16.2 °C 10.3 °C 1020.9 hPa West 17.7 km/h 20.9 km/h 68% 0.0 mm 366.00 W/m2
10:49 16.1 °C 10.2 °C 1020.9 hPa WNW 7.9 km/h 14.5 km/h 68% 0.0 mm 345.00 W/m2
10:54 16.4 °C 10.3 °C 1020.9 hPa West 6.4 km/h 22.5 km/h 67% 0.0 mm 1164.00 W/m2
10:59 16.2 °C 10.1 °C 1020.9 hPa NW 11.1 km/h 22.5 km/h 67% 0.0 mm 329.00 W/m2
11:04 16.1 °C 10.0 °C 1020.9 hPa NW 13.0 km/h 22.5 km/h 67% 0.0 mm 315.00 W/m2
11:09 16.3 °C 10.4 °C 1020.9 hPa WNW 16.3 km/h 20.9 km/h 68% 0.0 mm 341.00 W/m2
11:14 16.5 °C 10.6 °C 1020.9 hPa WNW 7.9 km/h 19.3 km/h 68% 0.0 mm 719.00 W/m2
11:19 16.9 °C 10.7 °C 1020.9 hPa NW 14.3 km/h 16.1 km/h 67% 0.0 mm 250.00 W/m2
11:24 16.8 °C 10.6 °C 1020.9 hPa NNE 9.7 km/h 12.9 km/h 67% 0.0 mm 860.00 W/m2
11:29 17.0 °C 10.4 °C 1020.9 hPa WNW 20.9 km/h 20.9 km/h 65% 0.0 mm 1028.00 W/m2
11:34 16.9 °C 10.3 °C 1020.9 hPa WNW 7.9 km/h 20.9 km/h 65% 0.0 mm 348.00 W/m2
11:39 16.7 °C 10.1 °C 1020.9 hPa WNW 7.9 km/h 16.1 km/h 65% 0.0 mm 432.00 W/m2
11:44 17.2 °C 10.6 °C 1020.9 hPa Calm   12.9 km/h 65% 0.0 mm 366.00 W/m2
11:49 16.9 °C 10.3 °C 1021.2 hPa WNW 11.1 km/h 19.3 km/h 65% 0.0 mm 408.00 W/m2
11:54 16.7 °C 10.3 °C 1021.2 hPa NNW 6.4 km/h 20.9 km/h 66% 0.0 mm 415.00 W/m2
11:59 16.9 °C 10.7 °C 1021.2 hPa WNW 4.7 km/h 16.1 km/h 67% 0.0 mm 436.00 W/m2
12:04 17.3 °C 10.7 °C 1021.2 hPa West 22.7 km/h 22.5 km/h 65% 0.0 mm 436.00 W/m2
12:09 17.7 °C 10.8 °C 1021.2 hPa West 14.3 km/h 19.3 km/h 64% 0.0 mm 1027.00 W/m2
12:14 17.3 °C 10.7 °C 1021.2 hPa WNW 9.7 km/h 17.7 km/h 65% 0.0 mm 415.00 W/m2
12:19 17.8 °C 11.1 °C 1021.2 hPa WNW 14.3 km/h 17.7 km/h 65% 0.0 mm 1111.00 W/m2
12:24 18.0 °C 10.6 °C 1020.9 hPa WNW 11.1 km/h 20.9 km/h 62% 0.0 mm 1095.00 W/m2
12:29 18.6 °C 11.4 °C 1021.2 hPa NNW 6.4 km/h 17.7 km/h 63% 0.0 mm 1095.00 W/m2
12:34 17.8 °C 10.9 °C 1021.2 hPa NW 27.4 km/h 27.4 km/h 64% 0.0 mm 297.00 W/m2
12:39 17.9 °C 11.2 °C 1021.2 hPa NW 9.7 km/h 11.3 km/h 65% 0.0 mm 452.00 W/m2
12:44 17.9 °C 11.0 °C 1021.2 hPa West 6.4 km/h 17.7 km/h 64% 0.0 mm 323.00 W/m2
12:49 17.7 °C 11.0 °C 1021.2 hPa NW 6.4 km/h 11.3 km/h 65% 0.0 mm 380.00 W/m2
12:54 17.7 °C 10.8 °C 1021.2 hPa West 14.3 km/h 19.3 km/h 64% 0.0 mm 396.00 W/m2
12:59 17.4 °C 10.8 °C 1021.2 hPa WNW 6.4 km/h 16.1 km/h 65% 0.0 mm 478.00 W/m2
13:04 18.0 °C 11.6 °C 1021.2 hPa WNW 9.7 km/h 12.9 km/h 66% 0.0 mm 513.00 W/m2
13:09 17.9 °C 11.2 °C 1021.2 hPa WNW 13.0 km/h 19.3 km/h 65% 0.0 mm 404.00 W/m2
13:14 17.8 °C 11.4 °C 1021.2 hPa NNW 9.7 km/h 16.1 km/h 66% 0.0 mm 494.00 W/m2
13:19 18.3 °C 11.4 °C 1021.2 hPa WNW 7.9 km/h 17.7 km/h 64% 0.0 mm 343.00 W/m2
13:24 18.0 °C 11.3 °C 1021.2 hPa WNW 6.4 km/h 16.1 km/h 65% 0.0 mm 353.00 W/m2
13:29 18.0 °C 11.6 °C 1021.2 hPa WNW 7.9 km/h 14.5 km/h 66% 0.0 mm 385.00 W/m2
13:34 17.9 °C 11.2 °C 1021.2 hPa West 3.2 km/h 16.1 km/h 65% 0.0 mm 613.00 W/m2
13:39 18.1 °C 11.4 °C 1021.2 hPa West 6.4 km/h 14.5 km/h 65% 0.0 mm 292.00 W/m2
13:44 17.9 °C 11.2 °C 1021.2 hPa NW 6.4 km/h 20.9 km/h 65% 0.0 mm 381.00 W/m2
13:49 17.9 °C 11.2 °C 1021.2 hPa West 13.0 km/h 19.3 km/h 65% 0.0 mm 436.00 W/m2
13:54 18.2 °C 12.0 °C 1021.2 hPa NW 9.7 km/h 12.9 km/h 67% 0.0 mm 374.00 W/m2
13:59 18.3 °C 11.6 °C 1021.2 hPa West 11.1 km/h 16.1 km/h 65% 0.0 mm 338.00 W/m2
14:04 18.0 °C 11.6 °C 1021.2 hPa West 22.5 km/h 22.5 km/h 66% 0.0 mm 357.00 W/m2
14:09 17.9 °C 11.5 °C 1021.2 hPa WNW 4.7 km/h 14.5 km/h 66% 0.0 mm 390.00 W/m2
14:14 17.9 °C 11.5 °C 1021.2 hPa NW 3.2 km/h 17.7 km/h 66% 0.0 mm 515.00 W/m2
14:19 18.0 °C 11.6 °C 1021.6 hPa WNW 7.9 km/h 14.5 km/h 66% 0.0 mm 469.00 W/m2
14:24 18.2 °C 12.4 °C 1021.6 hPa SW 6.4 km/h 14.5 km/h 69% 0.0 mm 401.00 W/m2
14:29 18.5 °C 12.7 °C 1021.2 hPa West 7.9 km/h 12.9 km/h 69% 0.0 mm 816.00 W/m2
14:34 18.9 °C 12.2 °C 1021.2 hPa West 14.3 km/h 14.5 km/h 65% 0.0 mm 494.00 W/m2
14:39 19.1 °C 12.4 °C 1021.2 hPa NW 16.1 km/h 16.1 km/h 65% 0.0 mm 1027.00 W/m2
14:44 19.7 °C 12.5 °C 1021.2 hPa West 7.9 km/h 16.1 km/h 63% 0.0 mm 1062.00 W/m2
14:49 19.3 °C 13.0 °C 1021.2 hPa WSW 17.7 km/h 19.3 km/h 67% 0.0 mm 360.00 W/m2
14:54 18.6 °C 12.8 °C 1021.2 hPa West 4.7 km/h 20.9 km/h 69% 0.0 mm 459.00 W/m2
14:59 18.6 °C 12.8 °C 1021.6 hPa West 3.2 km/h 16.1 km/h 69% 0.0 mm 420.00 W/m2
15:04 18.8 °C 13.2 °C 1021.6 hPa WNW 13.0 km/h 19.3 km/h 70% 0.0 mm 388.00 W/m2
15:09 18.5 °C 13.1 °C 1021.6 hPa West 22.5 km/h 22.5 km/h 71% 0.0 mm 339.00 W/m2
15:14 18.6 °C 13.0 °C 1021.2 hPa NNW 1.4 km/h 19.3 km/h 70% 0.0 mm 348.00 W/m2
15:19 18.4 °C 13.0 °C 1021.2 hPa West 19.5 km/h 19.3 km/h 71% 0.0 mm 482.00 W/m2
15:24 18.2 °C 12.9 °C 1021.2 hPa WNW 13.0 km/h 19.3 km/h 71% 0.0 mm 248.00 W/m2
15:29 17.9 °C 12.8 °C 1021.2 hPa WNW 11.1 km/h 19.3 km/h 72% 0.0 mm 348.00 W/m2
15:34 18.2 °C 12.9 °C 1021.6 hPa West 4.7 km/h 14.5 km/h 71% 0.0 mm 313.00 W/m2
15:39 18.3 °C 13.0 °C 1021.2 hPa WSW 11.1 km/h 22.5 km/h 71% 0.0 mm 480.00 W/m2
15:44 18.6 °C 13.2 °C 1021.2 hPa West 14.3 km/h 20.9 km/h 71% 0.0 mm 322.00 W/m2
15:49 18.4 °C 12.8 °C 1021.2 hPa WNW 6.4 km/h 19.3 km/h 70% 0.0 mm 250.00 W/m2
15:54 18.3 °C 12.7 °C 1021.6 hPa WNW 14.3 km/h 22.5 km/h 70% 0.0 mm 260.00 W/m2
15:59 18.4 °C 13.3 °C 1021.6 hPa WSW 16.3 km/h 16.1 km/h 72% 0.0 mm 302.00 W/m2
16:04 18.6 °C 13.2 °C 1021.6 hPa West 7.9 km/h 20.9 km/h 71% 0.0 mm 209.00 W/m2
16:09 18.4 °C 13.0 °C 1021.6 hPa NW 13.0 km/h 19.3 km/h 71% 0.0 mm 336.00 W/m2
16:14 18.5 °C 12.9 °C 1021.6 hPa WNW 13.0 km/h 19.3 km/h 70% 0.0 mm 283.00 W/m2
16:19 18.2 °C 12.9 °C 1021.6 hPa West 7.9 km/h 19.3 km/h 71% 0.0 mm 294.00 W/m2
16:24 18.1 °C 13.0 °C 1021.6 hPa WSW 13.0 km/h 20.9 km/h 72% 0.0 mm 348.00 W/m2
16:29 18.8 °C 13.4 °C 1021.6 hPa WSW 7.9 km/h 24.1 km/h 71% 0.0 mm 408.00 W/m2
16:34 18.7 °C 13.3 °C 1021.6 hPa West 13.0 km/h 16.1 km/h 71% 0.0 mm 313.00 W/m2
16:39 18.2 °C 13.1 °C 1021.9 hPa WNW 17.7 km/h 24.1 km/h 72% 0.0 mm 234.00 W/m2
16:44 18.0 °C 12.9 °C 1021.9 hPa WNW 7.9 km/h 14.5 km/h 72% 0.0 mm 199.00 W/m2
16:49 17.9 °C 12.8 °C 1021.6 hPa WNW 9.7 km/h 25.7 km/h 72% 0.0 mm 199.00 W/m2
16:54 18.0 °C 13.1 °C 1021.9 hPa NW 7.9 km/h 12.9 km/h 73% 0.0 mm 200.00 W/m2
16:59 18.0 °C 12.9 °C 1021.9 hPa West 17.7 km/h 19.3 km/h 72% 0.0 mm 162.00 W/m2
17:04 17.8 °C 12.9 °C 1021.9 hPa WNW 4.7 km/h 14.5 km/h 73% 0.0 mm 304.00 W/m2
17:09 18.2 °C 13.3 °C 1021.6 hPa WNW 13.0 km/h 14.5 km/h 73% 0.0 mm 265.00 W/m2
17:14 18.4 °C 13.3 °C 1021.9 hPa WNW 20.9 km/h 20.9 km/h 72% 0.0 mm 334.00 W/m2
17:19 18.2 °C 13.1 °C 1021.9 hPa WNW 7.9 km/h 22.5 km/h 72% 0.0 mm 313.00 W/m2
17:24 18.2 °C 13.1 °C 1021.6 hPa WNW 14.3 km/h 17.7 km/h 72% 0.0 mm 309.00 W/m2
17:29 18.3 °C 13.2 °C 1021.9 hPa West 20.9 km/h 20.9 km/h 72% 0.0 mm 299.00 W/m2
17:34 18.2 °C 13.1 °C 1021.9 hPa NW 7.9 km/h 17.7 km/h 72% 0.0 mm 410.00 W/m2
17:39 18.6 °C 13.5 °C 1021.9 hPa WNW 11.1 km/h 14.5 km/h 72% 0.0 mm 570.00 W/m2
17:44 18.9 °C 13.5 °C 1021.9 hPa WNW 9.7 km/h 17.7 km/h 71% 0.0 mm 687.00 W/m2
17:49 18.9 °C 13.3 °C 1021.9 hPa WSW 9.7 km/h 19.3 km/h 70% 0.0 mm 250.00 W/m2
17:54 18.8 °C 13.4 °C 1021.9 hPa WNW 16.3 km/h 16.1 km/h 71% 0.0 mm 213.00 W/m2
17:59 18.5 °C 13.4 °C 1021.9 hPa NW 4.7 km/h 11.3 km/h 72% 0.0 mm 172.00 W/m2
18:04 18.6 °C 13.2 °C 1021.9 hPa WNW 6.4 km/h 12.9 km/h 71% 0.0 mm 148.00 W/m2
18:09 18.4 °C 13.3 °C 1021.9 hPa West 13.0 km/h 12.9 km/h 72% 0.0 mm 118.00 W/m2
18:14 18.2 °C 13.1 °C 1021.9 hPa West 11.1 km/h 12.9 km/h 72% 0.0 mm 105.00 W/m2
18:19 18.0 °C 13.1 °C 1021.9 hPa West 6.4 km/h 12.9 km/h 73% 0.0 mm 109.00 W/m2
18:24 18.0 °C 13.1 °C 1021.9 hPa WNW 6.4 km/h 11.3 km/h 73% 0.0 mm 98.00 W/m2
18:29 18.0 °C 13.1 °C 1021.9 hPa West 7.9 km/h 9.7 km/h 73% 0.0 mm 76.00 W/m2
18:34 18.0 °C 13.1 °C 1022.2 hPa NNW 3.2 km/h 9.7 km/h 73% 0.0 mm 88.00 W/m2
18:39 18.0 °C 12.9 °C 1021.9 hPa NW 3.2 km/h 12.9 km/h 72% 0.0 mm 104.00 W/m2
18:44 17.9 °C 13.0 °C 1022.2 hPa West 4.7 km/h 8.0 km/h 73% 0.0 mm 70.00 W/m2
18:49 17.8 °C 12.9 °C 1021.9 hPa WNW 7.9 km/h 12.9 km/h 73% 0.0 mm 90.00 W/m2
18:54 17.7 °C 12.6 °C 1021.9 hPa WNW 7.9 km/h 11.3 km/h 72% 0.0 mm 116.00 W/m2
18:59 17.9 °C 12.8 °C 1022.2 hPa NW 6.4 km/h 9.7 km/h 72% 0.0 mm 127.00 W/m2
19:04 17.9 °C 12.6 °C 1022.2 hPa NW 4.7 km/h 6.4 km/h 71% 0.0 mm 167.00 W/m2
19:09 18.0 °C 12.4 °C 1022.2 hPa Calm   8.0 km/h 70% 0.0 mm 100.00 W/m2
19:14 18.1 °C 12.3 °C 1022.2 hPa NNW 12.9 km/h 12.9 km/h 69% 0.0 mm 98.00 W/m2
19:19 18.0 °C 12.0 °C 1022.2 hPa North 13.0 km/h 12.9 km/h 68% 0.0 mm 97.00 W/m2
19:24 18.0 °C 12.0 °C 1022.2 hPa NW 11.1 km/h 12.9 km/h 68% 0.0 mm 81.00 W/m2
19:29 17.9 °C 11.9 °C 1022.2 hPa NNE 6.4 km/h 19.3 km/h 68% 0.0 mm 62.00 W/m2
19:34 17.8 °C 11.8 °C 1022.2 hPa NNE 1.4 km/h 11.3 km/h 68% 0.0 mm 79.00 W/m2
19:39 17.8 °C 11.8 °C 1022.2 hPa North 3.2 km/h 9.7 km/h 68% 0.0 mm 81.00 W/m2
19:44 17.9 °C 11.9 °C 1022.2 hPa NW 1.4 km/h 6.4 km/h 68% 0.0 mm 76.00 W/m2
19:49 17.9 °C 11.5 °C 1022.2 hPa North 3.2 km/h 14.5 km/h 66% 0.0 mm 69.00 W/m2
19:54 17.8 °C 11.4 °C 1022.2 hPa NW 1.4 km/h 11.3 km/h 66% 0.0 mm 70.00 W/m2
19:59 17.8 °C 11.1 °C 1022.2 hPa NW 4.7 km/h 11.3 km/h 65% 0.0 mm 62.00 W/m2
20:04 17.8 °C 11.1 °C 1022.6 hPa North 13.0 km/h 16.1 km/h 65% 0.0 mm 67.00 W/m2
20:09 17.9 °C 11.5 °C 1022.2 hPa NNE 7.9 km/h 8.0 km/h 66% 0.0 mm 62.00 W/m2
20:14 17.9 °C 11.5 °C 1022.6 hPa North 12.9 km/h 12.9 km/h 66% 0.0 mm 69.00 W/m2
20:19 17.8 °C 11.4 °C 1022.6 hPa NNW 9.7 km/h 16.1 km/h 66% 0.0 mm 49.00 W/m2
20:24 17.7 °C 11.3 °C 1022.6 hPa NNW 4.7 km/h 9.7 km/h 66% 0.0 mm 40.00 W/m2
20:29 17.5 °C 11.3 °C 1022.6 hPa Calm   3.2 km/h 67% 0.0 mm 51.00 W/m2
20:34 17.6 °C 11.4 °C 1022.6 hPa NNW 1.4 km/h 4.8 km/h 67% 0.0 mm 39.00 W/m2
20:39 17.6 °C 11.2 °C 1022.6 hPa NW 4.7 km/h 12.9 km/h 66% 0.0 mm 33.00 W/m2
20:44 17.5 °C 11.1 °C 1022.6 hPa NNW 4.7 km/h 8.0 km/h 66% 0.0 mm 23.00 W/m2
20:49 17.4 °C 11.2 °C 1022.6 hPa NNW 4.7 km/h 6.4 km/h 67% 0.0 mm 19.00 W/m2
20:54 17.4 °C 11.2 °C 1022.9 hPa NNW 6.4 km/h 11.3 km/h 67% 0.0 mm 18.00 W/m2
20:59 17.3 °C 11.1 °C 1022.9 hPa NNW 3.2 km/h 6.4 km/h 67% 0.0 mm 14.00 W/m2
21:04 17.0 °C 11.1 °C 1022.9 hPa NNW 1.4 km/h 6.4 km/h 68% 0.0 mm 12.00 W/m2
21:09 16.9 °C 11.0 °C 1022.9 hPa NW 3.2 km/h 9.7 km/h 68% 0.0 mm 14.00 W/m2
21:14 16.9 °C 11.0 °C 1022.9 hPa NW 3.2 km/h 3.2 km/h 68% 0.0 mm 11.00 W/m2
21:19 16.8 °C 10.9 °C 1022.9 hPa Calm   4.8 km/h 68% 0.0 mm 7.00 W/m2
21:24 16.6 °C 10.7 °C 1023.2 hPa NW 4.7 km/h 6.4 km/h 68% 0.0 mm 5.00 W/m2
21:29 16.6 °C 10.7 °C 1023.2 hPa NW 6.4 km/h 9.7 km/h 68% 0.0 mm 0.00 W/m2
21:34 16.5 °C 10.6 °C 1023.2 hPa Calm   8.0 km/h 68% 0.0 mm 0.00 W/m2
21:39 16.4 °C 10.7 °C 1023.2 hPa Calm   4.8 km/h 69% 0.0 mm 0.00 W/m2
21:44 16.3 °C 10.6 °C 1023.2 hPa Calm   3.2 km/h 69% 0.0 mm 0.00 W/m2
21:49 16.2 °C 10.5 °C 1023.2 hPa NW 1.4 km/h 3.2 km/h 69% 0.0 mm 0.00 W/m2
21:52 16.0 °C 10.5 °C 1023.2 hPa Calm   3.2 km/h 70% 0.0 mm 0.00 W/m2
21:58 15.9 °C 10.4 °C 1023.6 hPa Calm     70% 0.0 mm 0.00 W/m2
22:04 15.7 °C 10.5 °C 1023.6 hPa NW 3.2 km/h 3.2 km/h 71% 0.0 mm 0.00 W/m2
22:09 15.4 °C 10.2 °C 1023.6 hPa Calm   1.6 km/h 71% 0.0 mm 0.00 W/m2
22:14 15.2 °C 10.2 °C 1023.6 hPa NW 1.4 km/h 4.8 km/h 72% 0.0 mm 0.00 W/m2
22:19 15.0 °C 10.0 °C 1023.6 hPa NW 1.4 km/h 6.4 km/h 72% 0.0 mm 0.00 W/m2
22:24 14.9 °C 9.9 °C 1023.6 hPa Calm   1.6 km/h 72% 0.0 mm 0.00 W/m2
22:29 14.7 °C 9.9 °C 1023.6 hPa Calm   3.2 km/h 73% 0.0 mm 0.00 W/m2
22:34 14.6 °C 9.8 °C 1023.6 hPa Calm     73% 0.0 mm 0.00 W/m2
22:39 14.5 °C 9.7 °C 1023.9 hPa Calm     73% 0.0 mm 0.00 W/m2
22:44 14.4 °C 9.8 °C 1023.9 hPa NW 3.2 km/h 3.2 km/h 74% 0.0 mm 0.00 W/m2
22:49 14.3 °C 9.7 °C 1023.9 hPa NW 4.8 km/h 4.8 km/h 74% 0.0 mm 0.00 W/m2
22:54 14.3 °C 9.7 °C 1023.9 hPa NW 3.2 km/h 6.4 km/h 74% 0.0 mm 0.00 W/m2
22:59 14.2 °C 9.6 °C 1023.9 hPa NW 3.2 km/h 8.0 km/h 74% 0.0 mm 0.00 W/m2
23:04 14.2 °C 9.6 °C 1023.9 hPa Calm   4.8 km/h 74% 0.0 mm 0.00 W/m2
23:09 14.2 °C 9.6 °C 1023.9 hPa Calm   1.6 km/h 74% 0.0 mm 0.00 W/m2
23:14 14.2 °C 9.6 °C 1023.9 hPa Calm     74% 0.0 mm 0.00 W/m2
23:19 14.1 °C 9.5 °C 1023.9 hPa Calm     74% 0.0 mm 0.00 W/m2
23:24 14.1 °C 9.5 °C 1023.9 hPa Calm     74% 0.0 mm 0.00 W/m2
23:29 14.0 °C 9.4 °C 1024.3 hPa NW 3.2 km/h 3.2 km/h 74% 0.0 mm 0.00 W/m2
23:34 13.9 °C 9.3 °C 1024.3 hPa Calm   3.2 km/h 74% 0.0 mm 0.00 W/m2
23:39 13.8 °C 9.2 °C 1024.3 hPa NW 3.2 km/h 3.2 km/h 74% 0.0 mm 0.00 W/m2
23:44 13.7 °C 9.1 °C 1024.3 hPa NW 3.2 km/h 3.2 km/h 74% 0.0 mm 0.00 W/m2
23:49 13.7 °C 9.3 °C 1024.3 hPa NW 4.7 km/h 6.4 km/h 75% 0.0 mm 0.00 W/m2
23:54 13.8 °C 9.4 °C 1024.3 hPa NW 1.4 km/h 1.6 km/h 75% 0.0 mm 0.00 W/m2
23:59 13.9 °C 9.5 °C 1024.3 hPa NW 3.2 km/h 8.0 km/h 75% 0.0 mm 0.00 W/m2